User: anonymous   Login
Location: Seminole
(32.7190°N, 102.6440°W)
Time: 05:51:11
(UTC-05:00)
Language:

Meteor 2-10 - Orbit

View from above orbital plane
View from above orbital plane
View from above satellite
View from above satellite

Ground track
Ground track

The orbit data is extracted from the following two-line orbital elements,

1 14452U 83109A   17206.14395889 +.00000053 +00000-0 +16322-4 0  9996
2 14452 081.1608 038.0087 0089979 270.9512 088.1359 14.26434657754154
Epoch (UTC): 25 July 2017 03:27:18
Eccentricity: 0.0089979
inclination: 81.1608°
perigee height: 739 km
apogee height: 868 km
right ascension of ascending node: 38.0087°
argument of perigee: 270.9512°
revolutions per day: 14.26434657
mean anomaly at epoch: 88.1359°
orbit number at epoch: 75415

The dashed part of the orbit path shows where the satellite is in the earth's shadow,  

DLR